Location: Haliburton Scout Reserve
(45.0900°N, 78.3200°W)
Time: 18:27:45
(UTC-05:00)

Courier 1B - Pass Details

Date: 29 November 2023
Orbit: 962 x 1209 km, 28.3° (Epoch: 23 February)

Event Time Altitude Azimuth Distance (km) Brightness Sun altitude
Rises 14:49:23 0° 245° (WSW) 3,639 11.8 13.2°
Reaches altitude 10° 14:53:07 10° 224° (SW) 2,710 13.1 12.8°
Maximum altitude 14:56:51 16° 189° (S) 2,331 10.7 12.4°
Drops below altitude 10° 15:00:40 10° 154° (SSE) 2,774 10.2 11.9°
Sets 15:04:34 0° 134° (SE) 3,772 10.6 11.4°
